DON PEDRO RESERVOIR (DNP)

Elevation: 830' · TUOLUMNE R basin · Operator: Turlock Irrigation District


Station comments:

04/19/2016Reservoir elevation data is now being collected from the USGS site.


Provisional data, subject to change.
Query executed Friday at 13:20:08   clock

Select a sensor type for a plot of data.
Note: Reservoir Flows are daily averages.

Earlier

Date RES ELE    STORAGE    RES CHG    TOC STO    ABV TOC    OUTFLOW    INFLOW    PPT INC   
 FEET   AF   AF   AF   AF   CFS   CFS   INCHES  
05/26/2016 786.50 1523558 -2079 1965676 -442118 2291 2291 0.00
05/27/2016 786.82 1526680 2081 1974865 -- 1772 3346 0.00
05/28/2016 787.01 1528764 1770 1984054 -- 1744 2794 0.00
05/29/2016 787.14 1529807 1564 1993243 -- 1910 2436 0.00
05/30/2016 787.29 1531895 1669 2002432 -470537 1817 2870 0.00
05/31/2016 787.51 1533984 940 2011621 -477637 1545 2598 0.00
06/01/2016 787.53 1533984 -2298 2020811 -486827 1956 1956 0.00
06/02/2016 787.76 1537123 1464 2030000 -492877 1967 3549 0.00
06/03/2016 787.86 1538170 -628 2026266 -- 2226 2754 0.00
06/04/2016 788.05 1540266 2094 2021639 -- 2240 3297 0.00
06/05/2016 788.46 1544465 3986 1977898 -433433 1677 3794 0.00
06/06/2016 788.69 1546568 315 1980229 -435449 2370 3430 0.00
06/07/2016 788.96 1549726 947 1892035 -433367 1675 3267 0.00
06/08/2016 789.16 1551834 -211 1896634 -434243 1667 2730 0.00
06/09/2016 789.30 1552889 -843 1900964 -348075 1921 2453 0.00
06/10/2016 789.39 1553944 -949 1905141 -- 2136 2668 0.00
06/11/2016 789.55 1555000 1582 1907534 -- 2054 2586 0.00
06/12/2016 789.68 1557114 1267 1909480 -352366 1990 3055 0.00
06/13/2016 789.88 1559230 -106 1911966 -352736 1580 2647 0.00
06/14/2016 790.06 1561348 -212 1912584 -351236 1952 3020 0.00
06/15/2016 790.22 1562408 -734 1911922 -349514 1967 2502 0.00
06/16/2016 790.22 1562408 -1898 1910826 -350316 2422 2422 0.00
06/17/2016 790.14 1561348 -2857 1909192 -- 2474 1940 0.00
06/18/2016 790.17 1562408 428 1930884 -- 1838 2372 0.00
06/19/2016 790.21 1562408 531 1907634 -347124 1939 1939 0.00
06/20/2016 790.40 1564529 0 1907844 -343315 1957 3026 0.00
06/21/2016 790.58 1566653 106 1908288 -341635 2075 3145 0.00
06/22/2016 790.82 1568778 531 1908769 -339991 2301 3372 0.00
06/23/2016 790.83 1569097 319 -- -- -- -- --
06/24/2016 -- -- -- -- -- -- -- --

Later | Latest

Warning! This data is preliminary and subject to revision.

Show DNP Map | Plot DNP Data | 1 Month DNP Data | Real-Time DNP Data | DNP Info